Flag for Japan Weather past 2 weeks in Hiroshima, Japan

52 °F

Partly sunny.

Feels Like: 49 °F
Forecast: 41 / 51 °F
Wind: 9 mph from Northeast

Location: Iwakuni Marine Corps Air Station

Current Time: Nov 25, 2015 at 6:06:05 PM

Latest Report: Nov 25, 2015 at 4:55 PM

Visibility: N/A

Pressure: 29.95 "Hg

Humidity: 89%

Dew point: 49 °F

Location of HiroshimaLocation

Historic Weather in Hiroshima — Graph


Hiroshima temperature yesterday

Maximum temperature yesterday: 65 °F (at 10:55 AM)
Minimum temperature yesterday: 54 °F (at 9:55 PM)
Average temperature yesterday: 60 °F

Past Weeks' High & Low Weather Summary

High73 °F (Nov 23, 1:55 PM)100% (Nov 14, 7:55 AM)30.42 "Hg (Nov 14, 7:55 AM)
Low51 °F (Nov 25, 12:55 PM)32% (Nov 12, 3:55 PM)29.86 "Hg (Nov 18, 3:55 PM)
Average61 °F80%30.14 "Hg
* Reported Nov 10 4:55 PM — Nov 25 4:55 PM, Hiroshima, Weather by CustomWeather, © 2015

Note: Actual official high and low records may vary slightly from our data, if they occured in-between our weather recording intervals... More about our weather records


Hiroshima weather history for previous 24 hours

Time TempWeatherWind HumidityBarometerVisibility
4:55 PM
Wed, Nov 25
52 °FPartly sunny.9 mph89%29.95 "HgN/A
3:55 PM52 °FMore clouds than sun.14 mph89%29.94 "HgN/A
2:55 PM52 °FLight rain. More clouds than sun.10 mph89%29.96 "HgN/A
1:55 PM52 °FLight rain. More clouds than sun.10 mph89%29.96 "HgN/A
12:55 PM51 °FLight rain. More clouds than sun.10 mph89%29.98 "HgN/A
11:55 AM52 °FLight rain. Mostly cloudy.10 mph83%30.00 "HgN/A
10:55 AM54 °FLight rain. Mostly cloudy.10 mph74%30.03 "HgN/A
9:55 AM55 °FSprinkles. Mostly cloudy.16 mph44%30.05 "HgN/A
8:55 AM54 °FMostly cloudy.14 mph64%30.06 "HgN/A
7:55 AM54 °FMostly cloudy.13 mph64%30.06 "HgN/A
6:55 AM53 °FMostly cloudy.10 mph66%30.06 "HgN/A
5:55 AM53 °FPartly cloudy.15 mph64%30.04 "HgN/A
4:55 AM53 °FPassing clouds.15 mph66%30.06 "HgN/A
3:55 AM53 °FPassing clouds.13 mph69%30.05 "HgN/A
2:55 AM53 °FPartly cloudy.18 mph66%30.06 "HgN/A
1:55 AM53 °FPartly cloudy.16 mph66%30.11 "HgN/A
12:55 AM53 °FPassing clouds.18 mph66%30.11 "HgN/A
10:55 PM
Tue, Nov 24
54 °FPassing clouds.20 mph67%30.13 "HgN/A
9:55 PM54 °FPartly cloudy.20 mph67%30.16 "HgN/A
8:55 PM55 °FPartly cloudy.21 mph67%30.15 "HgN/A
7:55 PM56 °FPartly cloudy.23 mph67%30.14 "HgN/A
6:55 PM58 °FPassing clouds.26 mph70%30.13 "HgN/A
Weather by CustomWeather, © 2015

See weather overviewHow to use our weather pages